• In Hungary
  • List of Countries
  • For 7 days
  • Water Temperature
  • Satellite Maps
  • Weather Map
  • News
  • Weather Widgets
  • user-avatar
    Login

    Hourly Weather Kakanj

    Today, 21 October, Saturday

    Time Temperature Precipitation Wind Pressure Humidity
    00:00 +13°C° 0 mm 1 mps 725 mmHg 83%
    01:00 +12°C° 0 mm 1 mps 725 mmHg 84%
    02:00 +12°C° 0 mm 1 mps 725 mmHg 85%
    03:00 +12°C° 0 mm 1 mps 725 mmHg 85%
    04:00 +12°C° 0 mm 1 mps 725 mmHg 86%
    05:00 +12°C° 0 mm 1 mps 725 mmHg 84%
    06:00 +12°C° 0 mm 1 mps 725 mmHg 82%
    07:00 +12°C° 0 mm 1 mps 725 mmHg 81%
    08:00 +15°C° 0 mm 1 mps 725 mmHg 70%
    09:00 +19°C° 0 mm 1 mps 726 mmHg 58%
    10:00 +22°C° 0 mm 1 mps 726 mmHg 47%
    11:00 +23°C° 0 mm 1 mps 726 mmHg 44%
    12:00 +23°C° 0 mm 1 mps 726 mmHg 40%
    13:00 +24°C° 0 mm 1 mps 725 mmHg 37%
    14:00 +23°C° 0 mm 1 mps 725 mmHg 42%
    15:00 +22°C° 0 mm 1 mps 725 mmHg 48%
    16:00 +21°C° 0 mm 1 mps 724 mmHg 53%
    17:00 +19°C° 0 mm 1 mps 724 mmHg 60%
    18:00 +16°C° 0 mm 1 mps 724 mmHg 67%
    19:00 +13°C° 0 mm 0 mps 724 mmHg 74%
    20:00 +14°C° 0 mm 1 mps 724 mmHg 76%
    21:00 +13°C° 0 mm 1 mps 724 mmHg 78%
    22:00 +13°C° 0 mm 1 mps 724 mmHg 80%
    23:00 +13°C° 0 mm 1 mps 724 mmHg 81%

    Tomorrow, 22 October, Sunday

    Time Temperature Precipitation Wind Pressure Humidity
    00:00 +12°C° 0 mm 1 mps 724 mmHg 83%
    01:00 +12°C° 0 mm 1 mps 724 mmHg 84%
    02:00 +12°C° 0 mm 1 mps 724 mmHg 85%
    03:00 +12°C° 0 mm 1 mps 723 mmHg 85%
    04:00 +12°C° 0 mm 1 mps 723 mmHg 86%
    05:00 +12°C° 0 mm 1 mps 723 mmHg 85%
    06:00 +12°C° 0 mm 1 mps 723 mmHg 85%
    07:00 +12°C° 0 mm 1 mps 723 mmHg 84%
    08:00 +15°C° 0 mm 1 mps 723 mmHg 75%
    09:00 +18°C° 0 mm 1 mps 723 mmHg 65%
    10:00 +21°C° 0 mm 1 mps 723 mmHg 56%
    11:00 +22°C° 0 mm 1 mps 723 mmHg 53%
    12:00 +22°C° 0 mm 1 mps 722 mmHg 51%
    13:00 +23°C° 0 mm 1 mps 722 mmHg 49%
    14:00 +22°C° 0.2 mm 1 mps 721 mmHg 55%
    15:00 +21°C° 0.2 mm 1 mps 721 mmHg 61%
    16:00 +20°C° 0.2 mm 1 mps 720 mmHg 67%
    17:00 +18°C° 1.4 mm 1 mps 720 mmHg 74%
    18:00 +16°C° 1.4 mm 1 mps 720 mmHg 81%
    19:00 +15°C° 1.4 mm 1 mps 719 mmHg 87%
    20:00 +15°C° 2.4 mm 1 mps 719 mmHg 90%
    21:00 +15°C° 2.4 mm 1 mps 719 mmHg 92%
    22:00 +14°C° 2.4 mm 1 mps 719 mmHg 94%
    23:00 +14°C° 4 mm 1 mps 718 mmHg 95%

    Day after tomorrow, 23 October, Monday

    Time Temperature Precipitation Wind Pressure Humidity
    00:00 +13°C° 4 mm 2 mps 718 mmHg 96%
    01:00 +12°C° 4 mm 3 mps 718 mmHg 96%
    02:00 +12°C° 4.2 mm 2 mps 717 mmHg 96%
    03:00 +10°C° 4.2 mm 2 mps 717 mmHg 96%
    04:00 +9°C° 4.2 mm 2 mps 717 mmHg 96%
    05:00 +9°C° 1.9 mm 2 mps 717 mmHg 96%
    06:00 +8°C° 1.9 mm 2 mps 717 mmHg 95%
    07:00 +8°C° 1.9 mm 3 mps 717 mmHg 95%
    08:00 +8°C° 0.9 mm 3 mps 717 mmHg 94%
    09:00 +8°C° 0.9 mm 3 mps 717 mmHg 93%
    10:00 +8°C° 0.9 mm 3 mps 718 mmHg 92%
    11:00 +8°C° 0.8 mm 3 mps 718 mmHg 91%
    12:00 +8°C° 0.8 mm 3 mps 718 mmHg 90%
    13:00 +8°C° 0.8 mm 3 mps 718 mmHg 89%
    14:00 +8°C° 0.8 mm 3 mps 718 mmHg 90%
    15:00 +7°C° 0.8 mm 3 mps 718 mmHg 91%
    16:00 +7°C° 0.8 mm 3 mps 718 mmHg 92%
    17:00 +7°C° 0.6 mm 3 mps 719 mmHg 92%
    18:00 +7°C° 0.6 mm 3 mps 719 mmHg 92%
    19:00 +7°C° 0.6 mm 3 mps 719 mmHg 92%
    20:00 +7°C° 0.6 mm 3 mps 719 mmHg 92%
    21:00 +7°C° 0.6 mm 3 mps 719 mmHg 93%
    22:00 +7°C° 0.6 mm 3 mps 719 mmHg 93%
    23:00 +6°C° 0.6 mm 4 mps 719 mmHg 93%

    24 October, Tuesday

    Time Temperature Precipitation Wind Pressure Humidity
    00:00 +6°C° 0.6 mm 4 mps 719 mmHg 93%
    01:00 +6°C° 0.6 mm 4 mps 719 mmHg 93%
    02:00 +6°C° 0.7 mm 4 mps 719 mmHg 93%
    03:00 +6°C° 0.7 mm 4 mps 719 mmHg 93%
    04:00 +5°C° 0.7 mm 4 mps 719 mmHg 93%
    05:00 +5°C° 0.8 mm 4 mps 719 mmHg 93%
    06:00 +5°C° 0.8 mm 4 mps 719 mmHg 93%
    07:00 +5°C° 0.8 mm 4 mps 719 mmHg 94%
    08:00 +6°C° 0.8 mm 4 mps 720 mmHg 94%
    09:00 +6°C° 0.8 mm 4 mps 720 mmHg 94%
    10:00 +6°C° 0.8 mm 5 mps 720 mmHg 94%
    11:00 +6°C° 0.7 mm 4 mps 720 mmHg 93%
    12:00 +6°C° 0.7 mm 4 mps 720 mmHg 93%
    13:00 +7°C° 0.7 mm 4 mps 721 mmHg 93%
    14:00 +7°C° 0.7 mm 5 mps 721 mmHg 93%
    15:00 +7°C° 0.7 mm 5 mps 721 mmHg 93%
    16:00 +7°C° 0.7 mm 5 mps 721 mmHg 92%
    17:00 +7°C° 0.4 mm 5 mps 722 mmHg 92%
    18:00 +7°C° 0.4 mm 5 mps 722 mmHg 93%
    19:00 +7°C° 0.4 mm 5 mps 723 mmHg 93%
    20:00 +7°C° 0.1 mm 5 mps 723 mmHg 93%
    21:00 +7°C° 0.1 mm 5 mps 724 mmHg 93%
    22:00 +7°C° 0.1 mm 5 mps 724 mmHg 93%
    23:00 +6°C° 0.1 mm 4 mps 724 mmHg 93%

    25 October, Wednesday

    Time Temperature Precipitation Wind Pressure Humidity
    00:00 +6°C° 0.1 mm 4 mps 724 mmHg 93%
    01:00 +6°C° 0.1 mm 4 mps 725 mmHg 93%
    02:00 +5°C° 0 mm 4 mps 725 mmHg 92%
    03:00 +5°C° 0 mm 4 mps 725 mmHg 92%
    04:00 +5°C° 0 mm 3 mps 725 mmHg 92%
    05:00 +5°C° 0 mm 3 mps 726 mmHg 92%
    06:00 +5°C° 0 mm 3 mps 726 mmHg 92%
    07:00 +4°C° 0 mm 3 mps 727 mmHg 92%
    08:00 +5°C° 0 mm 3 mps 727 mmHg 88%
    09:00 +7°C° 0 mm 3 mps 727 mmHg 83%
    10:00 +8°C° 0 mm 3 mps 728 mmHg 79%
    11:00 +8°C° 0 mm 3 mps 728 mmHg 75%
    12:00 +9°C° 0 mm 3 mps 727 mmHg 72%
    13:00 +10°C° 0 mm 3 mps 727 mmHg 68%
    14:00 +10°C° 0 mm 3 mps 727 mmHg 70%
    15:00 +9°C° 0 mm 3 mps 727 mmHg 72%
    16:00 +9°C° 0 mm 2 mps 728 mmHg 73%
    17:00 +8°C° 0 mm 2 mps 728 mmHg 78%
    18:00 +6°C° 0 mm 2 mps 728 mmHg 82%
    19:00 +6°C° 0 mm 1 mps 729 mmHg 87%
    20:00 +6°C° 0 mm 1 mps 729 mmHg 87%
    21:00 +6°C° 0 mm 1 mps 729 mmHg 87%
    22:00 +5°C° 0 mm 1 mps 729 mmHg 87%
    23:00 +5°C° 0 mm 1 mps 729 mmHg 86%

    26 October, Thursday

    Time Temperature Precipitation Wind Pressure Humidity
    00:00 +5°C° 0 mm 1 mps 729 mmHg 85%
    01:00 +5°C° 0 mm 1 mps 729 mmHg 85%
    02:00 +5°C° 0 mm 1 mps 729 mmHg 83%
    03:00 +5°C° 0 mm 1 mps 729 mmHg 82%
    04:00 +5°C° 0 mm 1 mps 729 mmHg 81%
    05:00 +5°C° 0 mm 1 mps 730 mmHg 79%
    06:00 +6°C° 0 mm 1 mps 730 mmHg 78%
    07:00 +6°C° 0 mm 1 mps 730 mmHg 76%
    08:00 +8°C° 0 mm 1 mps 730 mmHg 70%
    09:00 +10°C° 0 mm 1 mps 731 mmHg 64%
    10:00 +13°C° 0 mm 1 mps 731 mmHg 57%
    11:00 +14°C° 0 mm 2 mps 730 mmHg 58%
    12:00 +14°C° 0 mm 2 mps 730 mmHg 58%
    13:00 +15°C° 0 mm 2 mps 730 mmHg 58%
    14:00 +14°C° 0 mm 2 mps 730 mmHg 64%
    15:00 +13°C° 0 mm 1 mps 730 mmHg 70%
    16:00 +13°C° 0 mm 1 mps 730 mmHg 76%
    17:00 +11°C° 0 mm 1 mps 730 mmHg 80%
    18:00 +10°C° 0 mm 1 mps 730 mmHg 85%
    19:00 +9°C° 0 mm 1 mps 730 mmHg 89%
    20:00 +9°C° 0 mm 1 mps 730 mmHg 89%
    21:00 +9°C° 0 mm 1 mps 730 mmHg 89%
    22:00 +9°C° 0 mm 1 mps 730 mmHg 89%
    23:00 +9°C° 0 mm 1 mps 730 mmHg 90%
    Show more